Theta_e
334 334 334 334 335 335 335 334 333 332 332 330 330 331 330 330 328 326 324 321 320 320 320 319 320 320 320 319 318 317 316 315 314 313 313 313 315 319 322 323 321 319 319 321 326 331 332 333 332 331 330 329 328 328 327 326 326 323 319 318 319 320 320 319 318 318 317 317 317 316 316 315 315 314 313 313 312 312 311 310 310 310 311 310 310
335 335 334 334 335 335 335 335 334 333 332 331 331 331 331 331 330 329 327 325 322 320 320 320 320 320 320 320 320 319 318 317 316 315 314 314 313 314 315 316 316 314 314 315 318 325 330 332 331 331 330 329 328 328 328 327 328 326 321 318 318 319 320 320 318 318 317 317 317 316 316 316 315 314 313 313 312 311 311 310 310 309 310 310 310
335 335 335 334 335 335 335 335 334 334 333 332 332 331 330 332 332 331 330 329 327 323 321 320 320 320 320 321 321 321 320 320 319 319 318 317 315 315 313 313 313 312 311 312 312 316 324 329 331 331 330 329 329 328 328 328 328 327 323 320 319 319 320 320 319 318 318 317 316 316 316 315 315 314 314 313 312 311 311 310 310 309 310 310 309
336 335 335 335 335 335 335 335 334 333 333 332 332 332 330 331 333 332 332 332 330 328 326 322 320 320 320 321 321 321 321 321 321 321 321 320 319 318 317 315 314 313 313 312 312 312 318 326 329 331 330 329 329 328 328 328 328 327 325 322 320 320 321 320 319 319 318 317 317 317 316 316 315 314 314 313 312 312 311 310 310 310 309 309 309
336 336 335 336 335 335 335 335 334 332 332 331 332 332 331 329 330 331 332 332 332 332 331 328 323 320 321 322 322 321 321 321 322 322 322 322 322 322 321 320 317 316 315 314 314 312 314 320 325 328 330 330 329 329 328 328 328 328 327 325 322 320 321 320 320 319 319 318 317 317 317 316 315 314 314 313 312 312 311 310 310 309 309 308 308
336 336 336 336 336 336 335 335 334 333 331 331 332 332 332 329 329 330 330 330 332 334 333 332 329 324 323 324 324 324 323 323 323 322 322 322 321 321 322 322 321 320 319 317 316 315 314 315 320 324 327 329 330 329 329 328 327 327 327 327 324 322 320 321 321 320 319 318 317 317 317 316 315 314 314 313 312 312 311 311 310 309 309 308 308
333 334 335 335 335 336 335 335 335 334 333 332 332 333 332 331 331 329 327 327 330 332 334 334 334 329 327 327 327 328 327 325 325 325 326 325 324 323 321 321 321 321 321 321 320 318 316 315 316 319 323 327 329 328 329 329 328 327 327 326 325 324 321 321 321 320 319 318 317 317 317 316 315 315 314 313 312 312 311 311 310 309 309 308 308
335 334 334 335 335 334 334 334 334 335 334 333 334 333 332 330 329 328 327 327 327 328 331 333 334 333 331 331 330 331 330 328 328 328 328 328 328 327 326 324 322 321 321 322 323 321 319 317 316 317 319 322 325 326 328 329 329 328 327 326 325 325 323 322 322 321 319 318 317 317 317 316 316 315 314 313 312 312 311 311 310 309 309 309 308
339 336 334 334 334 334 334 333 334 335 335 334 334 333 333 329 327 328 329 330 329 327 327 330 333 335 334 332 332 332 331 331 330 329 329 329 329 329 329 329 328 326 323 322 323 323 322 320 319 317 317 318 319 322 325 327 328 328 328 327 326 326 325 323 322 322 321 320 319 318 317 316 316 315 314 313 312 312 311 310 310 309 309 309 308
331 337 337 334 333 334 334 334 333 334 334 335 335 334 334 331 329 330 331 331 332 330 327 326 328 332 334 334 332 332 332 331 330 329 329 329 329 328 329 329 329 329 328 326 323 322 321 322 321 320 319 318 318 319 321 323 326 327 326 326 327 326 325 325 323 323 322 321 321 319 318 317 316 315 314 313 312 312 311 311 310 310 309 309 308
315 324 332 334 333 333 332 333 334 333 333 332 333 334 334 333 332 332 333 333 333 331 329 327 326 329 332 332 332 333 332 331 331 330 329 329 327 325 326 327 327 328 330 329 327 323 322 322 323 323 322 321 319 318 319 320 321 323 323 324 325 325 326 326 325 324 323 323 322 320 319 318 316 315 314 313 312 312 311 311 310 310 309 309 309
308 310 319 328 330 332 332 331 331 332 330 330 331 332 332 333 333 333 334 333 332 331 331 329 328 329 329 328 329 332 330 328 327 327 327 327 325 324 326 325 324 327 329 329 329 327 325 324 323 324 324 324 323 322 320 319 319 320 321 322 323 325 326 326 326 325 323 323 323 321 320 318 316 315 313 313 312 312 311 311 310 310 310 309 309
309 307 316 329 333 335 335 334 332 331 330 330 333 333 331 332 333 332 331 331 330 329 328 328 327 328 329 328 329 330 328 327 326 324 327 326 324 325 325 323 324 326 327 328 328 328 327 327 326 326 325 325 325 324 324 322 320 319 320 321 322 324 326 326 326 325 325 324 323 322 322 320 318 316 313 313 312 311 311 311 311 311 310 309 309
310 307 314 329 337 337 336 337 337 335 333 331 333 333 332 333 332 331 330 329 329 326 325 328 328 328 330 331 330 328 325 326 326 327 329 328 326 325 321 321 325 325 324 324 324 324 324 325 326 327 326 326 325 325 325 325 323 321 320 321 321 322 324 326 326 325 325 324 323 323 322 321 319 317 314 313 313 311 311 311 311 311 311 310 310
311 309 308 317 329 334 334 334 335 336 337 334 332 332 333 334 333 331 330 329 328 325 323 326 327 327 329 329 327 326 325 325 325 328 330 329 329 325 320 321 323 322 321 322 322 323 323 323 324 325 326 325 325 325 325 326 326 325 322 321 322 322 323 324 325 325 325 325 323 323 322 321 321 318 314 313 313 312 311 312 312 312 311 311 310
311 312 309 308 317 328 331 330 331 332 335 336 334 333 333 333 332 330 329 329 327 324 322 323 325 325 326 326 326 326 326 325 325 326 326 324 323 319 317 320 322 323 324 325 325 324 322 322 322 323 324 324 325 325 326 326 326 326 325 323 322 322 322 322 324 325 325 324 324 323 322 321 321 319 316 313 313 313 312 313 313 313 312 312 311
313 312 311 308 311 324 332 333 332 330 331 333 333 333 332 331 329 327 328 328 325 324 323 323 324 324 324 325 325 325 325 324 323 322 320 318 316 315 316 318 321 324 325 324 324 323 321 320 319 317 316 319 323 325 325 326 326 325 325 325 324 323 322 321 322 323 324 324 324 324 323 322 322 320 316 313 313 313 313 314 314 314 313 312 312
313 312 311 309 310 321 331 333 333 331 330 331 331 332 332 329 326 325 325 324 323 324 324 323 323 323 324 324 323 324 323 322 322 322 321 319 318 318 320 321 322 323 323 323 323 322 320 317 313 310 308 311 318 321 322 323 324 325 325 325 325 325 324 323 322 322 323 322 322 324 323 322 322 321 317 313 313 313 313 314 314 314 313 312 312
310 311 312 311 310 319 328 330 331 331 331 331 331 331 329 326 323 323 324 322 322 323 324 323 322 321 322 323 322 322 320 319 320 321 322 322 321 321 322 323 324 324 324 323 321 317 313 309 306 305 306 307 310 315 320 321 321 323 325 325 325 325 325 325 324 323 323 321 320 323 324 322 322 322 318 314 313 314 314 314 315 314 313 312 312
308 310 312 311 310 317 326 330 330 330 331 331 331 329 327 327 327 329 327 322 320 321 322 321 319 318 319 319 319 319 319 319 319 320 321 322 322 322 322 323 324 324 323 320 316 313 309 306 304 305 307 309 309 314 319 322 323 324 325 325 325 325 325 325 325 324 323 322 321 322 323 322 322 322 319 315 314 314 314 314 315 314 313 312 311
308 309 311 312 310 312 320 328 330 330 330 330 329 326 325 328 331 331 324 318 317 317 317 317 315 315 316 316 317 318 318 318 318 319 320 320 320 320 321 322 322 322 320 317 312 309 307 305 305 306 309 313 315 318 320 321 322 322 323 324 323 322 322 323 324 324 323 324 323 322 322 323 322 322 320 317 315 315 314 314 315 314 313 312 311
308 308 310 312 311 311 315 322 328 329 329 328 327 324 322 323 326 325 319 314 313 312 311 310 311 314 313 313 315 316 317 318 320 320 318 319 320 319 319 320 320 319 316 311 306 304 304 304 304 307 310 313 315 316 315 314 314 315 317 319 318 316 316 319 322 324 323 323 324 322 322 322 322 322 321 319 316 315 315 314 314 315 314 313 312
307 307 309 311 311 310 311 316 323 326 327 325 324 322 319 318 320 320 317 313 311 309 307 306 308 312 312 310 309 309 311 315 319 320 318 319 320 319 317 314 315 314 309 305 303 302 304 305 306 309 310 311 310 310 310 309 309 309 309 310 310 309 310 313 318 321 321 321 323 322 322 321 322 322 321 320 318 315 315 315 315 315 314 314 313
308 307 307 309 310 309 309 312 317 321 322 322 320 320 318 315 315 315 312 310 308 306 306 306 307 310 310 309 311 309 307 311 317 319 319 319 320 317 313 307 306 306 303 302 303 304 306 308 309 310 310 310 309 309 309 308 308 308 307 307 306 305 307 310 314 317 319 320 321 321 322 320 321 322 321 320 319 316 315 315 315 315 315 314 314
307 306 306 308 310 309 307 309 312 316 318 319 319 318 317 315 312 310 307 306 305 304 305 305 305 307 306 308 310 308 309 315 319 320 319 319 317 312 308 304 303 304 303 302 303 306 308 309 310 310 310 310 309 309 308 308 309 310 311 311 309 307 307 308 310 313 318 320 319 320 321 319 318 322 321 319 319 317 316 316 315 315 315 314 314
306 306 306 306 308 309 308 307 309 311 313 315 316 315 315 313 311 309 306 304 303 303 303 303 303 304 304 306 305 306 313 320 321 321 318 314 310 307 306 306 305 303 303 304 306 308 309 309 309 309 308 308 308 309 310 310 311 312 313 314 313 311 309 308 308 311 315 318 319 320 321 318 316 320 321 319 319 319 317 316 316 315 315 315 315
307 307 307 306 307 308 308 308 308 308 309 311 312 313 312 311 310 308 306 303 303 303 303 303 303 303 303 304 303 307 317 321 320 318 312 306 305 304 305 307 308 307 306 307 309 309 309 308 307 307 308 309 311 312 312 312 313 313 313 314 314 314 312 311 311 313 315 317 318 319 319 318 315 317 319 318 319 320 319 317 316 316 316 316 316
307 307 307 307 306 307 308 308 307 307 308 308 309 309 310 310 309 308 305 303 303 303 303 303 303 303 304 305 304 309 317 319 316 312 305 302 304 303 303 305 308 311 312 312 311 310 309 307 307 309 311 312 313 313 313 313 313 313 313 313 314 314 313 313 313 314 317 318 319 319 317 316 315 315 318 318 319 320 320 318 317 318 318 317 317
307 307 307 307 307 307 308 308 308 307 307 307 307 308 309 309 309 308 305 303 302 303 303 303 303 303 305 305 305 309 314 313 308 304 302 302 302 303 304 305 306 311 313 313 313 310 308 307 310 312 312 313 314 314 314 314 313 313 313 313 314 314 314 313 312 315 319 320 319 318 316 315 314 316 319 319 318 319 319 319 319 319 319 319 318
307 307 308 308 308 308 308 309 309 308 308 307 307 307 308 309 309 308 305 303 302 303 303 303 303 304 305 305 305 307 309 307 303 302 302 302 302 303 304 305 308 310 312 313 313 309 307 310 313 312 312 313 314 314 314 314 314 313 313 313 313 314 314 314 312 315 319 320 319 318 316 316 316 318 320 318 315 317 319 319 320 320 319 319 319
306 307 308 308 308 308 308 309 309 309 309 308 307 307 308 308 308 307 305 303 302 303 304 303 303 304 305 305 305 305 305 304 302 302 301 301 302 302 304 307 309 311 311 311 311 309 308 312 313 312 312 313 313 313 314 314 313 313 313 313 314 313 314 314 313 313 317 319 320 318 315 316 318 319 319 318 318 319 320 319 320 320 320 320 319
306 307 308 308 308 308 308 308 308 308 309 309 308 307 307 307 307 306 304 303 303 303 304 304 304 305 305 305 305 305 304 303 302 301 301 301 301 303 307 309 310 311 309 307 308 309 311 313 313 311 311 312 312 312 313 313 313 313 313 313 314 314 314 315 314 314 317 319 319 317 314 315 318 318 319 320 320 320 319 320 321 321 320 319 318
306 307 307 308 308 308 308 308 308 308 308 308 308 308 307 307 306 305 304 303 303 303 304 304 304 305 305 305 305 304 303 303 302 301 301 300 302 306 309 310 310 309 305 304 308 311 312 312 311 311 311 311 311 312 312 313 312 313 313 313 313 314 314 315 314 315 317 317 316 315 314 315 317 318 318 319 319 320 320 320 320 320 319 318 316
306 306 307 307 307 308 308 308 308 308 308 308 308 308 307 306 305 305 304 303 303 303 304 304 304 304 305 305 305 303 303 302 301 301 300 301 304 307 309 309 308 304 303 307 311 312 312 311 311 311 311 311 311 312 312 312 312 313 313 312 313 314 314 314 314 314 315 315 315 316 316 316 317 318 318 318 318 320 320 320 319 319 318 317 316
306 306 306 307 307 307 308 308 308 308 308 308 308 308 307 305 305 304 304 304 304 304 304 304 304 304 305 305 304 303 302 302 301 301 300 302 305 307 308 307 303 302 306 311 312 311 311 311 310 310 311 311 311 312 312 312 312 313 313 313 313 315 315 315 315 314 315 315 315 316 317 316 315 316 318 318 318 318 319 319 318 317 317 316 315
306 306 306 306 307 307 307 308 308 308 308 307 307 307 307 305 305 304 304 304 304 304 304 304 304 304 304 304 303 302 302 302 301 301 301 302 305 306 305 303 302 306 311 312 311 311 310 310 310 311 311 311 312 312 312 312 313 314 315 314 314 315 316 316 316 316 315 315 316 316 316 315 315 317 318 318 317 317 317 317 316 316 316 316 315
306 306 306 306 307 307 307 307 307 308 308 307 307 307 306 305 305 304 304 304 304 304 304 304 304 304 304 303 302 302 302 301 301 301 301 302 304 304 302 301 305 310 312 311 311 311 310 310 310 311 311 311 311 312 312 313 313 314 315 315 314 315 316 316 316 316 315 316 316 317 316 316 316 317 318 318 318 317 317 316 316 316 316 316 315
306 306 306 306 307 307 307 307 307 308 307 307 307 307 306 306 305 304 304 304 304 304 304 304 304 303 304 303 302 302 302 301 301 301 301 302 302 301 301 305 310 312 311 311 311 311 310 310 310 310 311 311 311 312 312 313 313 314 315 315 314 314 315 316 315 315 316 316 317 317 317 317 317 317 317 317 317 317 317 317 317 316 316 316 316
305 306 306 306 306 307 307 307 307 308 307 307 307 307 307 306 305 304 304 304 303 304 304 304 304 304 304 302 302 302 302 301 301 301 301 301 300 300 304 310 312 311 311 311 311 310 310 309 309 310 310 310 311 312 313 313 313 314 315 315 315 314 315 315 315 315 315 316 316 316 317 317 317 316 316 316 316 316 317 317 317 317 316 316 316
305 306 306 306 306 307 307 307 307 307 307 307 307 307 307 306 305 304 304 304 304 304 305 305 304 304 304 302 302 302 301 301 301 301 301 300 300 304 309 312 311 310 311 311 311 310 309 308 309 309 310 310 311 312 313 314 314 314 315 316 315 315 315 315 314 314 314 314 314 315 315 315 315 315 315 315 316 316 317 317 317 316 316 316 315
305 305 306 306 306 306 307 307 307 307 307 307 307 307 307 306 306 305 304 304 303 303 305 305 305 304 304 303 302 301 301 301 300 301 300 300 302 308 312 311 310 310 311 311 310 309 308 307 308 309 309 310 312 312 313 314 314 314 315 316 316 316 315 315 314 314 314 314 314 314 315 316 316 316 316 316 317 317 317 316 316 316 315 315 314
305 305 305 306 306 306 306 306 307 307 307 307 307 307 307 307 306 305 304 304 303 303 304 305 305 304 304 303 302 301 301 301 300 301 299 300 307 312 312 311 311 311 311 311 310 308 307 307 308 308 309 310 312 313 313 314 314 314 314 315 316 316 316 315 314 314 314 315 315 315 316 316 316 316 316 317 317 317 316 316 315 315 315 314 314
305 305 305 305 305 305 306 306 306 307 307 307 307 307 307 307 306 306 305 304 303 304 304 305 305 304 304 303 302 301 301 301 301 300 299 304 311 312 311 311 311 311 311 311 310 308 307 307 307 308 309 310 312 313 314 314 313 313 314 314 315 315 316 316 316 316 315 315 316 316 316 316 316 316 316 316 316 316 315 315 315 315 314 314 314
304 304 305 305 305 305 305 305 306 306 306 306 306 306 306 306 306 306 305 304 304 304 304 305 305 304 304 303 302 302 301 300 300 299 301 308 313 312 311 312 311 311 311 311 310 309 308 308 308 308 308 310 312 313 314 314 313 313 313 314 314 314 314 315 315 315 316 316 316 315 315 315 315 315 315 315 315 315 315 315 315 314 314 313 313
304 304 304 305 305 305 305 305 305 306 306 306 306 306 306 306 306 306 305 305 304 304 304 305 305 304 304 303 302 301 301 300 300 299 305 312 313 311 312 313 311 311 311 311 310 310 309 309 309 309 309 310 312 313 314 314 314 314 314 314 314 314 313 313 314 314 315 315 315 314 315 315 315 315 315 315 315 315 315 314 314 313 313 313 312
304 304 304 304 305 305 305 305 305 305 305 306 306 306 306 306 306 306 305 305 305 304 305 305 305 304 303 302 302 301 300 300 299 301 308 314 312 310 312 313 312 311 311 310 310 310 310 310 310 310 311 311 312 314 314 314 314 314 314 314 315 315 314 314 314 314 314 314 314 314 314 315 315 315 315 315 314 314 314 313 313 313 312 312 311
304 304 304 304 304 305 305 305 305 305 305 306 306 306 306 306 306 306 306 305 305 305 305 305 305 304 303 302 301 300 300 300 299 304 312 314 311 311 312 313 313 312 310 310 310 310 310 311 311 312 312 312 313 314 313 314 314 314 314 314 315 315 315 315 315 314 315 315 315 314 314 315 315 315 315 314 314 313 313 312 312 312 311 311 310
304 304 305 305 305 305 305 305 305 305 305 306 306 306 306 306 306 306 306 306 306 306 306 306 305 304 303 302 301 300 300 299 301 308 314 314 311 311 312 313 313 313 311 310 311 311 311 311 312 313 313 313 313 313 313 313 313 314 314 314 315 315 315 315 315 315 315 315 315 314 314 314 314 314 314 313 313 312 312 312 312 311 310 310 309
304 304 305 305 305 305 305 305 305 305 305 306 306 306 306 306 306 306 306 306 306 306 306 306 305 304 303 301 300 300 300 299 304 312 315 312 311 311 311 312 313 313 312 310 311 312 312 311 312 313 313 313 313 313 312 313 313 314 314 314 315 315 315 315 315 315 315 315 315 314 314 314 314 313 313 312 312 312 311 311 310 309 309 308 307
303 304 304 305 305 305 305 305 305 305 305 306 306 306 306 306 306 306 307 307 307 307 307 306 305 303 302 300 300 300 299 301 309 315 314 312 311 311 311 312 313 313 313 311 311 312 312 312 312 313 313 313 312 312 312 313 314 315 315 315 315 315 315 315 315 314 314 314 314 314 314 314 313 313 312 312 311 311 310 309 309 308 307 307 306
303 303 304 304 304 305 305 305 305 305 305 306 306 306 306 306 307 307 307 307 307 307 306 306 304 302 300 300 300 299 299 305 313 315 314 312 312 311 310 311 312 313 314 312 311 312 313 313 313 313 313 312 312 312 312 313 314 315 315 315 315 315 315 315 314 314 314 314 314 313 313 313 313 312 312 311 310 309 308 307 307 307 306 305 304
Wind_Speed
28 27 26 25 24 23 22 21 19 18 19 20 17 15 15 14 14 14 14 14 14 13 13 13 12 11 10 10 10 10 10 11 12 14 16 19 20 21 20 19 19 17 16 15 13 14 15 16 16 16 16 14 13 12 10 10 13 14 13 14 15 14 12 10 9 9 8 8 8 7 7 6 6 6 6 5 5 5 6 6 6 6 5 4 4
30 29 28 27 26 24 23 23 21 19 20 21 17 16 16 15 15 16 15 16 15 15 15 15 15 14 13 12 12 11 11 11 11 11 13 15 17 20 21 21 21 20 19 18 16 15 16 17 17 18 17 15 14 13 12 14 15 16 15 13 15 15 13 11 11 10 9 9 9 8 8 7 7 6 6 6 6 5 6 6 6 6 6 5 4
32 31 30 29 27 26 24 24 23 22 23 22 19 18 18 16 16 17 16 16 16 16 17 17 17 16 15 15 15 14 13 13 13 12 12 12 13 16 18 20 21 21 21 20 18 17 16 18 18 19 19 16 16 17 16 17 17 17 16 13 14 15 13 13 12 10 10 10 10 9 9 9 8 7 7 7 7 6 6 6 6 6 6 6 5
35 34 33 32 30 28 26 26 26 25 25 24 21 20 19 17 16 18 17 17 16 16 18 18 18 18 17 17 17 17 16 15 15 15 15 14 13 14 15 17 18 20 21 20 20 18 17 18 19 19 19 18 18 19 18 17 18 17 16 14 14 15 15 14 13 12 11 11 11 10 10 10 9 9 7 7 8 7 7 6 7 7 6 6 6
37 37 36 35 34 32 30 28 27 27 27 25 22 21 22 21 19 19 19 20 20 18 19 21 20 20 19 18 19 19 17 18 18 17 17 17 16 16 16 16 16 17 19 20 20 20 19 19 20 20 20 19 19 20 20 19 18 16 16 17 16 16 16 15 15 14 12 12 12 12 11 11 10 9 8 8 9 8 8 7 7 6 6 7 6
38 36 35 35 35 34 32 30 29 29 29 27 24 24 25 25 22 21 22 24 24 22 23 24 23 23 22 21 20 20 19 20 20 19 19 19 19 19 19 18 18 18 19 19 20 20 21 20 21 22 22 22 21 21 21 21 19 16 16 19 18 16 17 17 16 16 14 13 13 13 12 12 11 11 10 9 10 9 8 7 7 6 6 7 7
38 38 38 37 35 35 35 34 31 30 31 29 26 26 25 24 22 23 25 26 25 26 26 26 24 25 25 23 22 21 21 21 21 21 21 21 21 21 20 20 20 20 20 20 21 21 22 22 22 22 23 24 24 23 23 24 24 20 18 20 21 20 18 18 19 18 15 14 14 13 13 12 12 12 11 10 11 10 9 8 7 7 7 7 6
38 39 41 41 37 36 36 36 33 30 30 29 28 28 27 27 25 25 26 26 26 27 29 27 25 27 27 25 23 23 24 24 24 23 23 23 24 23 22 22 21 21 22 21 22 22 22 23 24 24 24 25 25 26 25 26 27 23 19 20 22 22 20 19 20 20 18 16 15 14 14 14 13 13 12 11 11 10 9 9 8 8 7 6 6
40 38 39 42 41 38 35 35 35 33 31 29 31 33 32 31 29 27 26 25 25 27 29 29 26 27 27 25 24 25 26 26 26 25 25 25 26 25 24 23 23 23 23 23 23 23 22 22 23 25 26 27 26 27 27 26 27 25 22 22 22 22 22 22 21 21 20 17 15 15 16 16 15 14 13 13 12 11 10 10 9 8 7 6 6
41 41 39 40 41 42 40 38 36 36 34 32 35 36 34 33 31 30 30 27 26 26 28 31 30 28 27 25 25 29 30 28 27 26 26 28 29 29 28 26 25 24 23 24 25 24 24 24 24 25 27 28 28 28 28 28 29 29 27 26 25 25 25 25 23 23 22 20 17 17 18 18 17 15 14 14 13 12 12 11 10 9 8 6 6
39 43 43 42 41 42 43 43 40 39 39 38 39 38 36 34 31 32 34 33 30 26 25 28 30 29 28 27 28 31 32 30 29 29 29 32 32 32 32 31 30 27 24 25 26 25 25 26 26 26 27 28 29 29 29 30 32 32 31 30 30 30 28 27 26 25 25 24 21 19 20 20 18 15 14 14 14 13 13 12 11 10 9 7 6
36 39 43 44 43 42 42 43 44 44 44 42 41 39 36 35 33 33 34 34 31 28 25 25 25 26 27 30 31 32 32 32 31 32 33 33 33 33 33 33 31 29 27 26 27 27 27 27 28 28 29 29 29 29 30 31 33 34 33 33 34 34 32 31 30 28 27 27 24 21 21 21 18 16 15 15 15 14 14 13 12 11 10 9 7
37 36 38 41 42 43 41 38 40 45 45 41 41 39 36 36 35 33 33 33 32 30 29 29 26 25 26 28 31 34 34 31 31 32 34 34 33 32 32 31 30 29 28 28 28 29 29 29 29 30 30 30 30 30 30 31 33 34 35 35 35 35 35 34 32 29 29 29 27 24 22 22 20 18 17 16 15 14 14 14 13 11 11 11 9
39 38 39 40 40 40 42 39 36 42 44 43 44 41 39 38 36 35 34 33 33 30 28 29 28 27 28 26 26 31 33 31 31 32 30 30 29 29 31 32 31 30 28 27 28 27 28 30 31 31 31 32 32 31 32 32 32 34 35 37 37 36 37 36 33 31 31 31 30 26 24 23 21 19 18 16 14 13 14 15 13 11 11 11 10
43 41 40 43 44 42 44 44 40 41 42 43 45 44 42 41 39 38 36 34 33 30 29 32 30 29 30 29 27 26 27 28 31 33 32 31 33 36 36 33 31 29 27 26 26 26 27 30 32 32 32 32 33 33 33 32 31 32 34 37 38 38 38 38 35 33 34 33 32 28 25 25 22 21 19 16 14 13 14 14 11 10 10 10 10
46 45 42 44 47 46 44 46 45 45 44 44 45 45 44 43 42 39 37 34 32 31 32 32 31 29 27 26 25 21 21 21 21 27 33 35 37 38 35 32 29 27 26 27 27 26 27 28 30 31 30 30 30 31 30 29 30 32 33 34 37 39 40 41 41 38 37 36 34 31 26 24 23 22 19 16 15 14 14 12 10 9 9 9 10
49 47 45 44 46 46 43 43 45 47 49 49 48 47 45 45 43 39 37 36 33 31 33 31 29 29 26 23 20 18 19 18 15 19 24 25 26 27 27 27 27 26 25 26 25 24 23 23 25 26 27 26 25 26 27 28 30 32 32 33 36 39 41 44 45 44 42 36 33 34 29 25 25 23 20 18 17 15 13 11 9 9 9 9 10
51 48 46 45 46 47 46 45 45 47 48 49 48 47 45 45 44 40 38 38 34 30 30 29 27 28 30 27 22 19 17 15 13 14 16 18 19 19 21 23 24 24 23 23 23 23 23 24 25 25 26 25 23 24 26 27 28 30 31 32 33 37 40 43 46 48 45 36 33 35 30 27 27 24 20 19 17 15 14 12 10 10 9 9 11
52 49 47 46 47 48 47 47 47 48 48 48 48 45 43 44 43 41 38 36 35 31 26 25 27 30 33 32 29 27 23 20 16 11 11 14 14 15 18 20 21 22 23 24 25 25 25 25 25 25 25 24 24 24 24 25 27 29 32 33 35 37 40 41 44 47 45 38 36 37 31 29 30 25 21 19 17 15 15 13 11 11 10 10 12
51 49 49 48 48 49 48 46 46 47 48 48 46 41 39 39 40 40 39 37 36 31 25 25 30 32 31 32 32 30 28 28 26 21 17 15 15 16 18 21 24 26 27 28 28 28 28 27 26 25 24 23 24 23 23 25 26 29 33 36 38 39 42 43 44 45 44 40 37 37 34 32 31 28 23 19 18 17 15 14 11 10 11 11 12
52 50 50 50 49 49 49 47 45 45 47 47 44 41 39 40 43 43 43 41 37 32 30 32 33 31 29 29 29 28 28 29 29 28 26 23 23 21 19 22 27 30 31 30 30 29 27 26 25 24 23 23 24 22 24 25 25 27 29 30 32 33 36 39 43 46 43 39 36 35 34 34 33 31 26 20 17 17 16 15 13 11 10 11 13
54 52 51 51 50 50 50 49 47 46 47 47 44 42 41 44 46 45 44 43 40 37 36 38 35 32 30 30 29 29 28 29 31 31 30 28 27 26 22 21 24 31 34 31 27 25 24 24 25 25 26 25 25 24 25 26 25 26 26 27 30 30 30 31 38 46 44 39 36 32 32 34 33 30 26 21 17 17 18 17 15 13 12 12 14
55 54 53 52 51 50 51 51 50 48 48 48 47 44 43 45 44 41 41 43 43 41 39 40 38 32 30 31 33 32 29 29 30 29 29 26 25 27 28 27 30 35 34 28 24 24 24 25 25 26 26 26 26 25 26 27 27 28 28 28 29 30 30 27 29 34 38 39 38 34 32 34 33 29 26 22 19 19 20 18 17 16 15 14 15
55 56 55 53 52 51 51 52 52 51 50 50 48 46 45 46 44 41 42 44 45 44 41 41 39 35 33 32 30 30 30 30 25 22 25 25 24 27 30 32 33 32 30 26 24 25 25 25 26 26 26 26 26 26 28 29 29 29 28 27 27 28 28 27 25 25 29 35 38 37 33 32 33 32 27 23 23 24 23 20 18 18 17 18 18
55 56 55 54 54 52 51 52 54 53 53 52 51 48 47 48 46 45 45 46 46 45 43 42 41 39 38 34 31 30 32 32 25 23 29 30 29 30 29 30 30 27 27 26 25 26 25 25 26 26 26 27 28 30 31 30 29 28 26 25 26 26 26 26 25 24 26 29 33 39 36 30 31 31 26 24 26 27 25 22 20 19 19 21 21
54 54 53 54 55 54 51 51 53 53 53 54 54 51 51 50 48 46 46 47 46 45 44 43 42 41 39 36 35 34 33 32 27 28 34 34 33 31 28 26 27 27 27 26 25 26 26 27 28 27 27 29 29 29 28 26 25 25 24 24 24 24 24 23 23 24 26 26 28 36 37 30 28 30 28 27 29 29 28 25 22 20 20 21 22
52 52 52 54 55 54 52 50 51 52 53 55 55 53 52 49 47 46 47 46 46 45 43 41 41 41 39 36 36 35 33 32 32 33 35 34 32 30 28 25 23 23 25 26 27 27 27 28 28 28 27 25 22 19 18 19 19 19 19 20 22 23 24 24 23 25 26 24 25 32 35 29 27 29 29 28 28 30 31 28 25 23 22 23 23
50 51 52 53 53 52 52 51 51 51 52 54 54 52 50 48 47 47 48 46 45 44 41 40 41 40 38 35 35 36 33 32 35 36 34 31 29 29 29 27 22 18 18 21 26 28 28 28 27 26 21 15 13 13 13 14 15 16 17 18 20 22 24 24 22 23 25 24 25 28 30 28 27 29 30 28 29 31 31 29 26 25 25 25 25
50 50 50 51 52 52 52 52 52 52 52 52 52 50 48 47 49 49 48 46 45 43 40 40 41 40 38 36 36 37 35 34 36 35 31 29 28 28 29 28 25 20 16 16 21 25 27 27 25 22 16 12 13 13 12 13 14 16 17 19 21 23 24 23 19 18 18 22 26 24 24 27 29 29 30 29 28 28 27 26 25 26 26 25 24
50 50 50 50 51 51 52 52 53 53 53 51 50 48 47 48 50 50 48 46 44 42 40 41 42 40 38 37 37 37 37 37 35 32 29 28 28 29 29 27 26 25 21 18 20 24 26 24 20 16 15 14 14 14 13 14 15 17 18 20 22 23 23 20 16 15 15 19 26 25 22 26 29 28 27 27 27 27 26 24 23 24 24 23 23
49 49 50 51 50 50 51 52 52 53 53 52 49 47 48 49 50 49 48 46 44 42 41 42 43 40 38 38 38 37 37 36 33 30 29 28 29 30 29 28 27 25 24 21 22 25 25 20 16 15 16 17 15 15 15 16 17 18 18 19 21 21 20 17 14 17 17 17 23 25 21 22 24 24 25 25 26 27 24 23 23 25 25 24 22
48 49 50 51 50 49 49 49 50 51 52 52 50 48 48 49 50 50 47 45 44 42 42 43 42 40 39 38 38 37 36 34 32 30 29 29 30 30 29 28 27 26 25 24 25 26 25 20 18 18 19 18 16 15 16 18 19 18 17 18 19 18 18 15 14 17 16 15 18 22 21 20 20 21 22 22 24 24 22 23 25 24 23 20 15
48 49 50 51 50 49 48 48 47 48 50 51 51 50 49 49 50 49 46 44 42 41 42 43 42 40 39 39 38 38 36 34 31 31 30 30 30 30 29 28 27 27 27 26 27 27 26 24 22 21 20 18 16 14 16 19 18 17 16 17 17 16 15 16 16 15 15 16 18 19 19 19 19 19 20 21 24 23 23 28 26 18 16 13 10
46 48 49 50 50 49 48 47 46 46 47 49 50 50 49 49 49 48 45 43 42 42 43 43 41 40 40 39 39 38 36 34 32 31 31 31 30 29 28 27 27 27 27 27 26 25 24 24 22 21 19 17 15 15 17 18 16 15 15 15 16 15 14 16 18 17 16 16 17 18 19 19 18 19 20 22 24 22 22 26 23 17 16 17 18
45 46 47 48 48 47 47 46 46 46 46 46 47 48 49 49 48 47 45 44 44 43 43 42 41 41 41 40 40 39 36 34 32 32 32 31 30 28 27 27 27 27 27 26 25 23 23 24 22 20 19 17 16 16 17 15 12 12 12 12 13 13 15 17 20 21 18 17 18 19 20 19 18 20 21 22 25 25 24 23 21 20 22 24 24
43 44 45 45 44 44 44 45 46 46 45 44 44 46 47 47 47 46 45 45 45 43 41 41 41 41 42 41 40 39 37 34 33 33 32 30 29 27 27 27 27 27 26 24 24 23 23 23 21 18 17 16 15 15 15 13 10 8 8 8 9 12 15 16 18 19 18 18 19 19 19 20 20 21 22 21 22 24 24 24 23 23 25 26 27
42 43 43 43 43 43 43 44 45 44 43 43 43 44 45 46 46 47 46 46 44 42 40 40 41 42 42 41 40 39 37 35 34 33 32 30 28 27 27 27 27 26 24 24 24 23 23 22 18 15 13 13 13 13 14 13 10 7 6 6 9 13 16 16 16 17 16 17 18 19 19 20 20 21 21 19 19 21 22 23 23 24 26 27 27
39 41 41 41 42 42 43 43 43 42 41 41 42 43 44 45 47 47 46 46 44 41 39 39 41 42 42 41 40 39 37 36 34 33 31 28 27 27 27 27 26 24 23 24 23 22 20 17 14 12 11 12 13 14 13 12 9 7 6 6 10 14 15 15 15 16 16 14 15 17 18 17 17 19 18 17 18 19 21 24 25 25 26 27 27
36 38 39 40 41 42 42 42 41 40 40 41 41 42 43 44 46 47 47 46 44 41 39 39 42 43 43 41 40 39 37 35 33 31 30 28 27 27 27 26 24 23 23 23 22 20 17 14 13 12 11 13 15 15 12 10 9 8 7 7 11 14 14 14 13 13 12 11 11 13 16 16 16 16 16 16 17 19 21 24 25 26 27 27 27
34 35 37 38 39 40 41 41 40 39 39 40 41 42 43 43 45 47 47 46 44 42 40 40 42 44 43 42 40 39 37 35 33 31 29 28 27 26 26 25 23 23 23 22 20 18 16 14 14 13 13 15 16 14 11 10 9 9 7 9 11 13 13 14 14 13 12 12 11 13 15 16 17 17 17 17 18 20 21 23 24 25 26 27 28
31 32 34 35 37 39 40 40 40 39 40 41 42 42 42 43 44 46 47 47 45 43 41 41 43 45 43 42 41 39 37 34 32 30 29 28 27 26 25 24 23 23 22 21 20 19 18 16 15 15 15 17 17 14 12 11 9 8 9 11 12 13 15 16 15 14 14 14 13 14 15 16 18 19 19 19 20 21 22 23 23 25 26 27 27
27 29 31 34 36 38 39 40 40 40 41 41 41 40 41 42 43 45 47 47 47 45 42 42 44 45 44 42 41 38 36 34 31 30 29 28 26 25 24 23 22 22 22 22 22 21 19 18 17 17 17 17 17 15 13 10 8 8 10 11 12 14 17 18 17 16 16 15 14 15 16 17 18 19 19 20 22 23 24 24 25 25 25 24 23
25 27 29 33 36 37 39 39 40 41 41 40 39 39 40 41 42 44 46 48 47 45 43 43 44 45 44 43 41 39 36 34 32 30 29 28 26 25 24 23 22 22 22 23 23 22 21 19 19 19 19 18 16 15 13 11 10 10 10 10 12 14 16 17 16 16 17 16 16 17 17 18 18 18 20 21 22 23 24 23 22 21 19 17 16
24 26 28 31 33 35 37 38 39 40 40 39 39 39 39 40 41 43 45 47 47 46 44 43 43 44 44 43 41 39 36 34 32 30 29 28 27 26 25 23 22 22 22 22 22 22 22 21 21 21 22 19 17 17 16 13 11 11 11 11 11 12 14 14 14 14 15 16 16 17 18 18 18 18 19 20 20 20 19 18 17 15 14 14 14
22 25 27 29 30 32 34 36 38 39 39 39 39 39 38 39 40 41 43 45 46 46 45 44 44 44 44 43 41 39 36 34 32 31 30 29 28 27 25 23 22 22 22 22 22 22 22 22 22 22 22 20 19 18 17 15 13 12 12 12 12 13 14 13 12 11 12 14 16 16 16 17 17 18 18 18 17 16 15 14 14 13 13 13 14
20 23 25 27 29 31 32 34 35 36 37 37 37 37 37 38 39 40 42 43 44 44 43 43 44 45 44 43 41 38 36 34 32 32 30 29 29 28 27 24 22 22 23 22 22 23 23 23 22 21 21 20 18 16 15 15 14 13 12 12 12 13 13 13 13 13 12 13 15 16 16 16 16 16 16 16 15 14 14 13 13 12 12 13 13
19 21 23 25 27 29 31 32 33 34 35 34 35 35 36 36 37 38 40 41 42 42 42 41 42 43 43 42 39 37 35 34 33 32 30 30 30 30 28 25 23 22 23 23 22 23 24 24 22 20 18 17 16 15 15 15 15 14 13 13 14 14 14 14 15 15 15 15 16 16 16 15 15 15 15 15 14 14 13 12 12 12 12 13 13
18 19 21 23 24 26 28 30 32 33 34 33 33 33 34 35 35 37 39 40 41 41 41 40 40 41 41 40 38 36 35 34 33 31 30 30 31 31 30 27 24 23 23 22 22 23 24 24 21 19 17 17 18 17 17 17 17 17 17 18 18 18 17 17 17 17 17 17 16 16 15 14 14 15 14 14 13 12 12 12 13 12 12 13 13
17 18 19 21 23 24 26 28 31 32 33 32 32 33 34 34 36 38 40 41 41 41 40 39 39 40 39 38 37 36 35 34 32 30 30 31 32 32 31 29 26 24 24 24 23 23 24 23 22 20 20 21 21 20 20 21 20 19 19 20 20 20 20 20 19 18 18 17 16 15 14 14 14 14 13 13 12 12 13 13 13 13 12 12 14
18 17 17 19 21 23 25 26 28 30 31 31 31 32 33 35 36 38 40 41 41 40 39 39 38 38 38 38 37 36 35 34 32 30 30 32 34 34 32 30 28 26 26 26 25 24 25 25 24 24 25 25 24 23 23 23 21 19 20 20 19 19 19 19 18 17 16 16 15 15 15 14 14 13 13 13 13 13 14 14 13 13 12 13 15
20 18 17 18 21 22 24 25 26 27 29 30 31 32 33 34 35 37 39 42 42 40 39 38 38 38 38 37 36 36 35 33 31 30 31 33 34 34 32 32 31 29 27 27 27 26 26 26 26 26 27 27 26 25 24 22 20 20 20 19 18 16 16 16 16 15 15 14 14 15 15 14 13 13 12 12 12 13 13 14 13 12 13 14 16
Wind_Direction
231 230 229 230 233 233 230 230 232 230 229 223 215 219 222 220 223 225 227 230 232 236 236 235 235 235 234 231 230 229 233 239 239 240 241 241 241 240 242 247 250 254 257 255 249 248 244 235 241 253 259 265 272 282 286 291 297 291 276 264 258 242 232 241 239 234 234 226 220 216 212 211 213 202 190 190 194 197 199 193 179 166 158 162 169
233 232 231 232 233 236 235 232 233 233 231 226 218 219 223 222 225 228 229 231 232 234 236 236 237 238 241 242 240 238 238 241 243 245 247 248 248 246 245 247 250 252 255 256 253 247 244 244 247 251 254 262 275 282 288 295 297 294 280 261 256 248 235 240 246 242 236 232 229 224 215 211 218 211 200 205 212 214 211 202 189 176 167 167 174
233 234 233 233 233 235 239 237 231 231 234 230 223 222 224 223 226 229 231 232 233 236 238 238 239 239 240 246 246 245 245 247 248 249 251 253 255 255 252 249 250 252 254 255 256 251 248 250 250 248 248 258 274 278 281 288 292 293 282 261 251 247 236 232 240 242 238 239 237 232 220 209 218 217 208 214 216 222 223 206 195 187 176 172 175
235 235 235 235 235 234 237 239 236 234 237 235 227 226 226 225 227 230 233 234 232 237 242 242 241 241 240 245 248 248 249 251 252 253 255 255 256 259 259 257 254 254 255 256 257 254 248 247 249 248 247 256 268 268 267 273 281 285 285 275 253 237 232 229 229 234 236 235 230 229 224 211 217 221 211 214 213 219 230 218 204 197 189 184 177
236 236 236 237 237 235 235 239 241 237 239 238 231 230 231 229 229 231 235 236 234 237 244 244 241 239 238 241 247 250 250 252 254 255 257 258 258 258 259 261 260 258 257 256 256 255 250 247 249 250 249 252 253 252 253 258 263 272 285 286 266 238 230 228 225 229 231 229 223 223 225 213 214 223 218 217 218 222 232 228 217 206 200 197 184
238 237 236 237 237 236 234 236 241 241 241 240 232 231 233 231 230 232 236 239 237 237 241 244 243 241 238 236 240 246 249 252 255 257 258 259 260 259 259 260 261 261 261 259 256 254 252 249 248 250 251 248 241 241 249 251 249 255 274 282 276 255 236 227 225 229 228 223 221 219 223 217 210 221 227 219 218 226 233 231 227 218 212 209 194
243 242 240 239 237 237 237 237 240 242 242 241 235 231 230 230 229 232 238 242 242 241 242 245 246 244 241 237 237 242 246 249 252 256 260 262 261 261 261 260 259 260 261 261 259 256 254 252 249 248 250 248 244 244 249 251 248 246 259 274 280 273 250 230 223 228 229 222 220 220 222 222 212 217 227 218 212 220 226 228 230 228 219 214 204
241 241 240 240 237 236 239 238 238 239 239 239 237 234 232 232 232 234 239 243 247 246 247 248 247 244 243 242 242 246 248 248 250 253 258 262 262 263 262 259 259 260 261 260 260 259 256 254 253 250 249 248 249 250 249 250 247 241 250 264 271 271 258 241 229 229 231 224 223 225 224 225 218 219 224 215 210 214 219 221 228 237 230 218 213
238 237 237 238 237 235 237 238 236 237 239 237 238 240 239 238 238 239 240 241 246 249 250 252 249 244 245 248 250 253 252 249 250 251 255 259 260 262 261 259 259 258 259 259 259 260 260 257 255 253 252 251 249 250 251 250 244 239 249 255 253 256 253 245 237 232 235 234 231 230 226 225 227 233 229 213 209 214 218 217 223 236 233 224 221
237 237 236 237 238 238 238 239 237 237 239 237 240 244 244 243 241 242 244 244 246 248 251 254 253 247 245 248 251 254 253 251 251 252 255 258 260 261 260 260 261 257 255 257 258 258 260 261 257 254 252 252 251 249 249 250 246 245 253 254 249 254 252 243 238 233 238 244 239 235 232 228 234 243 233 215 212 215 216 217 222 226 223 227 229
238 237 237 237 240 242 242 240 238 239 242 241 241 242 244 245 241 240 246 249 248 247 249 254 256 253 248 249 254 253 251 252 253 255 258 260 262 264 263 261 261 260 255 256 259 257 256 258 258 256 253 253 253 252 250 249 249 250 255 255 252 255 251 242 238 234 240 248 246 242 238 233 238 244 237 223 213 212 214 219 223 220 219 229 238
244 240 236 236 240 244 246 244 242 242 243 242 240 240 242 244 241 240 244 248 247 244 244 247 250 253 255 257 257 253 255 259 259 257 258 259 262 264 264 262 260 260 258 257 260 259 256 254 254 255 254 254 254 254 254 252 251 251 252 253 252 253 248 240 238 235 238 247 247 245 241 236 238 244 242 227 212 210 215 219 219 219 220 226 239
248 243 235 235 239 239 240 242 242 243 242 240 239 242 244 244 244 243 243 246 246 245 246 246 247 250 254 256 255 254 259 264 264 263 260 257 258 259 261 263 262 260 258 257 259 261 260 257 254 254 254 255 255 255 255 254 254 252 251 251 252 253 249 241 236 234 235 239 242 245 246 239 235 242 240 224 216 216 221 223 218 219 223 223 232
249 245 236 232 233 232 231 232 235 239 242 240 239 242 245 245 245 244 244 246 248 249 247 245 245 244 241 248 258 262 263 261 261 263 256 249 252 259 264 265 264 261 260 261 262 263 264 261 258 256 256 256 256 256 256 255 254 253 250 250 250 252 251 243 237 235 233 235 237 241 248 244 235 239 236 222 223 226 230 232 221 218 227 227 230
246 245 240 233 230 230 233 234 233 234 238 240 240 241 244 246 246 244 242 244 249 250 243 239 241 241 239 248 260 265 265 260 256 252 247 247 255 265 268 265 261 259 260 264 263 262 264 263 259 257 257 256 256 256 256 256 255 254 253 251 250 250 251 247 243 240 234 233 236 236 243 247 239 235 231 224 226 229 236 240 229 224 233 236 236
245 243 242 237 233 233 236 239 237 232 233 238 241 243 243 244 245 242 238 240 246 248 244 241 241 239 237 244 250 253 254 253 254 251 250 255 260 263 263 257 255 255 256 258 258 259 261 260 257 256 257 257 256 256 256 256 256 257 256 253 252 251 251 250 249 246 236 231 235 234 236 245 242 233 228 224 224 227 237 246 244 242 247 248 248
244 242 242 240 236 234 236 240 240 236 235 238 240 241 242 243 244 241 236 239 242 244 246 245 240 237 234 233 236 243 246 246 255 260 259 262 261 257 253 250 252 254 253 253 253 256 259 260 262 263 262 258 255 255 256 256 257 259 260 259 258 255 253 250 249 246 238 232 234 233 231 240 243 233 223 222 224 225 232 244 252 253 258 259 254
243 243 243 241 238 234 232 234 238 240 241 241 240 240 240 242 243 240 238 240 241 243 248 246 240 236 235 234 233 239 247 244 246 257 266 270 263 253 251 251 251 249 248 251 255 260 264 268 270 270 268 263 257 255 255 256 258 262 264 264 263 261 259 255 253 247 238 236 239 231 225 233 240 235 223 220 226 227 229 238 247 251 256 259 256
243 242 242 241 239 235 233 231 234 237 241 242 241 239 239 241 242 241 241 243 241 242 243 242 241 239 237 238 237 240 247 244 238 245 265 273 265 257 256 251 245 246 250 256 263 268 271 273 273 273 273 272 268 263 261 262 265 268 270 270 269 269 267 261 258 250 237 237 242 232 227 233 236 236 226 219 225 227 229 235 242 251 254 252 253
243 241 240 240 238 235 233 232 232 233 236 238 238 235 234 236 236 237 241 244 243 241 237 237 244 245 241 240 239 239 244 245 243 243 250 264 268 260 257 255 252 254 260 267 272 275 276 276 275 275 275 276 273 268 268 269 269 269 269 270 271 272 272 266 263 255 239 234 237 231 231 234 233 236 230 216 223 227 228 233 238 253 256 246 247
243 242 240 239 238 235 233 232 231 231 233 234 233 231 231 229 229 233 239 243 242 240 240 241 244 246 244 242 241 239 241 245 244 243 246 254 260 259 260 263 262 263 268 274 277 277 275 273 273 275 274 272 271 269 270 272 271 269 266 267 269 272 274 269 266 262 245 232 232 231 234 234 229 233 231 218 224 232 231 232 233 244 251 242 243
241 241 240 239 237 235 233 232 230 230 232 233 231 230 231 232 234 237 241 244 243 242 245 246 245 245 245 244 242 239 238 241 240 242 244 246 251 256 258 259 262 269 275 276 275 272 268 270 273 276 275 274 274 274 276 276 275 273 271 270 272 274 277 275 268 262 250 236 235 237 238 235 224 224 230 226 224 233 234 233 232 235 244 242 239
242 241 239 238 237 235 232 232 231 230 232 234 233 231 234 237 238 239 241 244 246 247 248 248 245 243 243 245 245 243 241 238 238 240 240 239 246 255 259 261 265 270 274 275 272 269 269 272 274 275 275 276 277 278 278 279 278 278 276 275 276 277 278 278 269 259 251 242 239 239 236 234 230 227 233 236 225 228 236 235 233 234 239 245 242
243 242 239 237 237 236 233 231 231 230 232 235 236 236 237 239 239 240 243 245 246 247 246 246 245 241 241 242 241 243 244 243 240 238 239 242 248 256 261 265 266 268 270 271 271 271 271 273 275 275 275 275 276 277 277 278 280 280 280 277 276 276 274 273 268 259 255 247 239 239 234 232 237 231 229 237 228 226 236 236 233 234 236 244 247
241 241 239 237 236 236 233 231 231 231 232 235 237 238 238 239 241 243 246 246 246 246 245 245 245 244 244 241 239 242 244 243 240 240 246 250 251 254 258 262 262 263 267 270 271 273 274 275 275 276 277 277 278 278 278 279 280 279 278 275 271 270 269 268 267 261 256 247 235 234 231 230 238 233 228 240 234 224 233 237 233 234 237 243 249
242 241 239 238 237 236 235 232 232 232 233 234 236 237 239 240 242 246 248 247 246 246 246 246 246 247 246 243 242 243 243 240 240 246 252 252 251 251 253 255 259 262 265 269 271 272 275 278 279 280 282 282 282 281 279 278 278 276 275 274 269 266 266 264 261 254 248 244 237 232 228 227 235 237 235 242 238 228 229 235 236 236 240 247 253
245 244 242 241 240 239 237 235 233 232 233 234 235 236 238 240 243 246 248 246 245 245 246 246 246 246 245 243 242 242 241 240 243 250 253 250 249 250 249 249 256 264 267 270 272 273 276 279 283 286 286 284 283 282 279 275 276 279 277 275 271 265 262 255 249 248 243 239 236 229 226 228 231 235 238 242 243 236 229 230 237 243 247 252 258
247 246 244 243 243 241 240 237 235 234 234 234 236 237 239 241 243 245 246 245 244 244 244 244 245 245 243 242 241 239 239 240 245 250 249 247 247 248 249 248 249 257 264 269 273 277 281 284 287 290 285 277 280 282 279 277 279 280 276 273 272 263 257 251 246 252 249 231 220 219 222 227 227 230 236 239 240 237 230 228 238 250 255 257 260
246 247 246 245 244 243 241 240 237 236 236 236 236 238 240 242 243 245 245 243 242 242 243 244 244 243 241 240 239 238 238 242 246 247 246 246 247 245 247 249 248 249 253 262 270 276 283 287 290 291 276 260 274 280 278 279 278 279 276 271 270 263 257 254 248 256 248 214 203 210 216 217 218 225 232 234 238 240 239 237 243 254 260 261 259
246 246 247 246 245 243 242 240 239 238 238 238 237 238 239 241 243 244 244 242 241 241 242 243 242 240 239 238 236 236 238 243 245 245 246 246 246 245 246 249 250 250 250 256 266 274 280 284 286 285 269 261 271 275 276 282 281 282 279 271 268 266 261 256 248 246 235 208 203 210 216 214 215 222 227 228 235 241 245 249 252 257 262 263 259
246 245 246 245 244 242 241 240 240 239 239 239 238 237 237 240 242 243 242 240 239 239 241 242 240 237 236 235 235 236 239 243 244 244 246 245 244 245 246 249 251 252 253 255 261 271 277 278 276 272 265 264 268 271 276 284 286 283 277 270 267 266 262 255 245 237 234 226 216 213 218 223 222 227 229 229 234 237 243 253 254 255 257 255 252
245 245 244 244 244 243 242 241 241 241 240 239 238 236 236 238 240 240 240 238 238 239 242 241 238 236 235 235 236 238 239 241 242 243 245 244 244 245 246 250 253 256 257 256 258 268 273 272 271 269 264 263 266 271 279 285 286 277 266 263 262 262 259 246 232 231 228 220 213 211 217 227 232 236 234 231 234 234 238 248 248 247 245 239 239
244 243 243 243 243 243 243 243 243 242 241 240 239 236 235 236 238 238 238 237 237 239 241 239 236 234 235 236 237 238 239 240 241 242 243 243 243 245 247 251 255 258 260 260 261 267 271 270 270 268 266 268 270 275 283 284 280 266 255 258 256 252 251 239 222 215 205 196 202 209 218 228 234 236 231 228 231 226 221 229 237 239 235 233 242
243 243 243 242 242 243 244 244 244 243 242 241 240 237 235 234 236 237 236 236 236 238 240 237 234 233 234 235 236 237 238 238 239 241 241 242 243 245 248 252 257 260 262 264 263 263 267 268 267 266 268 272 274 276 278 275 267 257 253 257 253 239 234 233 222 207 195 196 207 216 225 232 231 230 233 234 236 228 213 217 230 241 248 256 264
244 243 242 242 242 243 244 244 244 243 241 240 240 238 234 233 234 235 234 234 235 237 239 236 232 232 233 234 235 236 236 236 238 240 241 242 243 245 250 254 257 261 264 265 261 258 260 264 265 267 271 273 272 270 268 261 251 250 252 253 248 233 222 219 216 212 208 209 216 223 228 230 229 234 239 235 234 234 230 234 245 254 259 265 270
244 243 242 242 242 242 242 242 242 242 240 238 237 234 232 231 232 233 233 234 235 238 239 235 232 233 233 233 234 234 236 236 237 240 240 241 244 247 251 254 258 262 263 261 257 253 254 258 263 267 268 268 267 261 252 241 232 237 245 239 225 219 217 210 206 207 210 215 222 225 223 222 228 241 244 234 230 234 239 248 254 257 260 264 269
244 243 242 241 241 240 239 239 240 240 239 237 234 231 229 229 230 231 231 233 235 238 238 235 233 233 233 233 233 234 235 237 237 239 240 242 245 248 252 255 258 260 258 255 252 249 249 255 263 266 262 259 256 246 233 225 224 225 227 217 202 204 207 201 196 198 202 211 221 221 217 219 229 242 244 238 235 238 242 248 252 255 259 263 268
244 243 242 241 240 239 238 238 238 238 237 236 233 230 228 227 227 228 229 231 234 238 239 235 233 233 234 233 233 234 236 237 238 239 241 242 245 248 251 255 257 255 253 250 246 245 247 253 260 257 250 245 238 229 223 225 229 225 222 208 197 198 199 196 199 204 202 202 208 211 213 221 231 240 245 243 241 244 247 251 253 255 258 262 267
245 244 242 241 241 240 239 238 237 237 236 234 233 231 229 227 226 227 227 229 232 236 237 235 233 233 233 232 233 234 236 237 238 239 241 242 244 248 251 253 253 250 247 243 239 239 243 248 250 243 236 233 228 221 221 230 232 227 219 199 193 192 189 189 194 196 194 191 193 200 209 219 230 238 241 240 241 247 252 255 255 255 258 262 267
245 244 243 242 241 241 240 240 238 236 235 233 232 231 229 226 225 225 226 227 230 233 234 234 233 233 232 232 233 234 236 237 238 239 241 241 243 247 249 248 245 242 239 234 231 232 235 239 241 234 227 227 225 220 222 227 230 230 214 195 196 193 184 185 187 183 184 186 187 195 207 220 230 234 235 236 240 247 252 254 253 254 256 260 264
244 245 245 244 243 242 241 240 239 237 235 233 231 229 227 225 225 225 225 225 228 231 232 232 231 232 232 232 232 234 236 236 238 239 239 240 242 245 245 242 239 235 231 228 226 226 228 232 234 227 225 225 222 222 227 224 223 226 209 194 198 199 191 192 196 198 199 199 201 209 218 225 229 229 230 233 238 243 246 247 248 250 255 260 266
241 243 243 243 242 242 241 240 239 237 235 233 231 230 228 226 226 225 224 224 225 229 232 231 231 231 230 231 232 233 235 236 236 236 236 238 241 240 239 239 236 232 228 224 222 222 224 229 230 225 225 226 221 222 226 219 208 204 198 193 199 201 199 201 205 210 214 215 220 226 227 226 225 223 224 229 234 238 241 244 248 254 260 265 268
238 238 240 241 241 241 241 241 240 239 237 235 232 230 228 227 228 227 224 222 223 227 231 231 231 230 229 230 231 232 233 233 233 233 233 236 237 234 233 233 231 229 227 223 221 222 225 229 229 228 228 227 222 221 218 206 198 196 190 189 197 201 205 211 217 219 221 222 222 223 223 222 220 219 222 228 235 240 245 251 256 261 264 264 263
238 236 236 238 240 241 241 241 240 239 239 237 234 232 229 227 228 228 226 224 223 226 229 231 230 229 229 229 229 230 231 232 231 230 232 233 232 229 228 228 226 224 223 223 223 226 229 230 229 230 231 229 222 216 210 201 201 202 194 191 197 201 206 213 220 222 221 219 215 214 218 221 223 226 231 236 241 247 251 254 255 255 255 256 259
241 239 236 235 237 239 239 240 240 239 238 237 235 233 230 228 227 228 227 225 225 227 229 230 229 228 227 228 228 229 230 229 228 228 230 230 227 224 223 224 224 221 220 221 224 228 231 232 231 232 234 232 221 212 207 207 209 209 206 203 202 203 205 208 213 217 215 213 213 216 220 223 227 232 237 241 244 246 245 244 244 246 250 256 259
243 242 239 237 236 236 237 238 239 239 238 236 235 233 231 229 227 227 227 227 227 228 231 231 229 227 226 226 227 228 229 227 226 226 228 227 224 222 221 222 222 221 220 220 222 226 227 226 228 232 234 230 220 211 210 212 211 210 211 211 208 208 208 206 210 215 216 215 217 221 224 226 228 231 235 237 236 235 236 240 244 247 250 253 254
247 244 241 240 239 237 236 237 238 238 237 235 233 232 230 228 226 226 227 227 228 229 231 231 229 226 225 225 227 228 228 226 225 226 227 225 223 221 221 221 221 222 222 222 223 226 225 223 223 226 226 218 208 204 206 207 206 204 203 205 206 207 206 205 209 214 216 216 216 218 222 224 225 227 228 228 229 233 240 244 244 244 246 250 255
250 247 243 241 241 240 238 237 236 236 235 232 230 229 228 226 225 225 226 227 227 229 229 227 225 224 224 225 226 227 227 225 224 225 225 223 223 222 220 220 221 222 223 223 222 225 225 222 219 216 210 201 195 195 199 200 201 200 199 202 204 204 204 206 209 212 214 216 216 218 220 221 222 224 225 227 234 241 244 243 241 242 249 255 260
247 249 248 244 241 240 240 238 236 235 233 229 227 225 224 223 222 222 223 225 226 227 225 222 220 221 222 223 225 225 225 223 222 223 222 221 222 223 221 220 220 222 222 220 219 222 221 218 215 209 199 193 193 195 198 199 197 198 201 206 208 207 208 209 211 212 214 216 217 219 220 222 224 227 230 236 241 242 241 244 247 250 256 262 267
245 245 249 249 245 241 238 238 237 236 232 226 224 224 222 221 221 221 222 224 224 221 219 216 216 218 220 223 224 223 221 220 220 220 220 220 222 223 221 219 218 221 221 217 216 217 216 214 213 205 196 194 197 198 198 199 197 198 203 209 212 213 216 217 215 215 215 216 219 221 223 227 229 232 235 237 238 239 244 250 253 254 258 266 275
252 244 243 248 249 244 240 238 236 235 232 226 222 222 222 222 222 221 221 221 218 214 211 211 214 217 220 222 221 219 218 218 219 219 219 220 223 224 222 219 218 219 220 217 216 215 213 214 212 203 196 198 200 200 200 200 199 200 203 205 208 214 222 224 220 219 222 224 227 228 229 232 234 232 233 235 239 244 248 250 251 255 261 270 279